リニア彗星

239P/LINEAR (2000)

English version
Home page
Updated on August 21, 2010

---------------------------------------------------------------------

・ プロフィール

符号 239P/1999 XB69
発見日 1999年12月7日
発見光度 17.9等
発見者 Lincoln Laboratory Near-Earth Asteroid Research project

・ 軌道要素

Epoch 2000 Feb. 26.0 TT = JDT 2451600.5
T 2000 Feb. 17.03714 TT                                 MPC
q   1.6392585            (2000.0)            P               Q
n   0.10485480     Peri.  220.17973     -0.43157808     -0.88165151
a   4.4539347      Node   256.16691     +0.86986569     -0.35070921
e   0.6319527      Incl.   11.33647     +0.23890173     -0.31574304
P   9.40

・ 星図

・ 光度変化

        m1 = 15.5 + 5 logΔ + 10.0 log r

---------------------------------------------------------------------

軌道要素はM.P.E.C. 2010-P21に掲載されたものです。
星図は StellaNavigator Ver.2.0 for Windows (アストロアーツ編著 / アスキー出版局刊) で作成したものです。
光度グラフはComet for Windowsで作成したものです。

---------------------------------------------------------------------

Copyright(C) Seiichi Yoshida (comet@aerith.net). All rights reserved.